Louisville Bowman, KY

1:25 AM EDT on October 16, 2019 (GMT -0400)
Bowman

Weather History for KLOU - July, 2019

Change the Weather History Date:

Monday, July 22, 2019

  Actual Average Record
Temperature  
Mean Temperature 76 °F 78 °F  
Max Temperature 82 °F 87 °F 102 °F (1983)
Min Temperature 69 °F 68 °F 57 °F (1966)
Degree Days  
Heating Degree Days 0 0  
Month to date heating degree days 0 0  
Since 1 June heating degree days 5 3  
Since 1 July heating degree days 0 0  
Cooling Degree Days 11 13  
Month to date cooling degree days 368 286  
Year to date cooling degree days 838 738  
Since 1 June cooling degree days 642 591  
Growing Degree Days 26 (Base 50)    
Moisture  
Dew Point 69 °F    
Average Humidity 77    
Maximum Humidity 93    
Minimum Humidity 61    
Precipitation  
Precipitation 0.04 in 0.18 in 1.75 in (2013)
Month to date precipitation 1.92 2.91  
Year to date precipitation 39.08 26.97  
Sea Level Pressure  
Sea Level Pressure 29.92 in    
Wind  
Wind Speed 6 mph (NW)    
Max Wind Speed 14 mph    
Max Gust Speed 21 mph    
Visibility 10 miles    
Events Rain    
T = Trace of Precipitation, MM = Missing Value Source: NWS Daily Summary

Daily Weather History Graph

Daily Weather History Graph

Search for Another Location

Airport or City:

Astronomy

Jul. 22, 2019 Rise Set
Actual Time 6:36 AM EDT 9:01 PM EDT
Civil Twilight 6:06 AM EDT 9:31 PM EDT
Nautical Twilight 5:29 AM EDT 10:08 PM EDT
Astronomical Twilight 4:47 AM EDT 10:49 PM EDT
Moon No Moon Rise 11:48 AM EDT (7/22)
Length of Visible Light 15h 24m
Length of Day
14h 24m
Waning Gibbous, 72% of the Moon is Illuminated
Jul 22
Waning Gibbous
Jul 24
Last Quarter
Jul 31
New
Aug 7
First Quarter
Aug 15
Full

Hourly Weather History & Observations

Time (EDT) Temp. Heat Index Dew Point Humidity Pressure Visibility Wind Dir Wind Speed Gust Speed Precip Events Conditions
12:53 AM 73.9 °F - 70.0 °F 87% 29.92 in 10.0 mi SW 3.5 mph - 0.10 in Rain Light Rain
1:53 AM 75.0 °F - 70.0 °F 84% 29.89 in 10.0 mi Calm Calm - 0.01 in   Clear
2:44 AM 73.9 °F - 70.0 °F 87% 29.91 in 10.0 mi Calm Calm - N/A   Partly Cloudy
2:53 AM 73.9 °F - 71.1 °F 91% 29.89 in 10.0 mi WSW 3.5 mph - N/A   Partly Cloudy
3:53 AM 73.9 °F - 71.1 °F 91% 29.88 in 10.0 mi Calm Calm - N/A   Clear
4:53 AM 73.9 °F - 71.1 °F 91% 29.89 in 10.0 mi South 3.5 mph - N/A   Scattered Clouds
5:07 AM 73.9 °F - 71.1 °F 91% 29.90 in 10.0 mi SSE 4.6 mph - N/A   Scattered Clouds
5:53 AM 73.9 °F - 71.1 °F 91% 29.88 in 9.0 mi SSE 4.6 mph - N/A   Partly Cloudy
6:53 AM 73.9 °F - 71.1 °F 91% 29.89 in 6.0 mi SW 4.6 mph - N/A   Mostly Cloudy
7:53 AM 73.9 °F - 71.1 °F 91% 29.91 in 10.0 mi SW 4.6 mph - N/A   Overcast
8:53 AM 75.0 °F - 71.1 °F 87% 29.91 in 10.0 mi SW 6.9 mph - N/A   Overcast
9:03 AM 75.0 °F - 71.1 °F 87% 29.93 in 10.0 mi WSW 4.6 mph - N/A   Overcast
9:53 AM 77.0 °F - 71.1 °F 82% 29.91 in 10.0 mi West 5.8 mph - N/A   Overcast
10:44 AM 78.1 °F - 71.1 °F 79% 29.92 in 10.0 mi NW 3.5 mph - N/A   Overcast
10:53 AM 78.1 °F - 71.1 °F 79% 29.91 in 10.0 mi NNW 4.6 mph - N/A   Overcast
11:53 AM 78.1 °F - 71.1 °F 79% 29.92 in 10.0 mi WNW 4.6 mph - N/A   Overcast
12:28 PM 80.1 °F 83.6 °F 71.1 °F 74% 29.92 in 10.0 mi NW 3.5 mph - N/A   Overcast
12:35 PM 80.1 °F 83.6 °F 71.1 °F 74% 29.92 in 10.0 mi Variable 3.5 mph - N/A   Overcast
12:53 PM 80.1 °F 83.6 °F 71.1 °F 74% 29.91 in 10.0 mi WNW 5.8 mph - N/A   Overcast
1:22 PM 82.0 °F 86.3 °F 71.1 °F 69% 29.92 in 10.0 mi West 8.1 mph - N/A   Mostly Cloudy
1:53 PM 81.0 °F 84.9 °F 71.1 °F 72% 29.89 in 10.0 mi WNW 9.2 mph - 0.00 in Rain Light Rain
2:53 PM 77.0 °F - 68.0 °F 74% 29.91 in 10.0 mi North 9.2 mph - 0.00 in Rain Light Rain
3:04 PM 77.0 °F - 68.0 °F 74% 29.92 in 10.0 mi North 6.9 mph 19.6 mph 0.00 in   Overcast
3:28 PM 75.9 °F - 70.0 °F 82% 29.93 in 10.0 mi NNW 6.9 mph - 0.02 in   Mostly Cloudy
3:44 PM 77.0 °F - 70.0 °F 79% 29.93 in 10.0 mi NNW 9.2 mph 18.4 mph 0.02 in   Mostly Cloudy
3:53 PM 77.0 °F - 69.1 °F 76% 29.91 in 10.0 mi NNW 9.2 mph - 0.02 in   Mostly Cloudy
4:09 PM 75.9 °F - 68.0 °F 76% 29.93 in 10.0 mi North 8.1 mph - N/A   Overcast
4:53 PM 75.0 °F - 68.0 °F 79% 29.93 in 10.0 mi North 9.2 mph 17.3 mph 0.01 in Rain Light Rain
5:46 PM 75.9 °F - 66.0 °F 71% 29.95 in 10.0 mi North 9.2 mph 20.7 mph 0.00 in   Scattered Clouds
5:53 PM 75.9 °F - 66.0 °F 71% 29.93 in 10.0 mi North 8.1 mph 20.7 mph 0.00 in   Scattered Clouds
6:53 PM 73.9 °F - 66.0 °F 76% 29.94 in 10.0 mi North 8.1 mph - N/A   Overcast
7:53 PM 73.9 °F - 59.0 °F 59% 29.96 in 10.0 mi North 8.1 mph - N/A   Mostly Cloudy
8:53 PM 73.0 °F - 64.0 °F 73% 29.97 in 10.0 mi North 8.1 mph - N/A   Overcast
9:53 PM 73.0 °F - 64.0 °F 73% 29.98 in 10.0 mi North 6.9 mph - N/A   Overcast
10:53 PM 71.1 °F - 63.0 °F 75% 30.00 in 10.0 mi North 3.5 mph - N/A   Clear
11:53 PM 70.0 °F - 62.1 °F 76% 30.00 in 10.0 mi NNW 3.5 mph - N/A   Clear